User: anonymous   Login
Location: Unspecified
(0.0000°N, 0.0000°E)
Time: 08:45:25
(UTC+01:00)
Language:

Cosmos 540 Rocket - Orbit

View from above orbital plane
View from above orbital plane
View from above satellite
View from above satellite

Ground track
Ground track

The orbit data is extracted from the following two-line orbital elements,

1 06324U 72104B   14302.78784907  .00000469  00000-0  14794-3 0  3945
2 06324 074.0775 087.2761 0008120 115.6950 346.8061 14.43008448196882
Epoch (UTC): 29 October 2014 18:54:30
Eccentricity: 0.0008120
inclination: 74.0775°
perigee height: 743 km
apogee height: 754 km
right ascension of ascending node: 87.2761°
argument of perigee: 115.6950°
revolutions per day: 14.43008448
mean anomaly at epoch: 346.8061°
orbit number at epoch: 19688

The dashed part of the orbit path shows where the satellite is in the earth's shadow,  

DLR